When you browse on this site, cookies collect data to enhance your experience and personalize the content and advertising you see.
Visit our Privacy Policy to learn more. By continuing to use the site, you agree to this use of cookies and data.
  • In Belgien
  • Länderverzeichnis
  • Für 7 Tage
  • Wassertemperatur
  • Satellitenkarten
  • Wetterkarte
  • Widgets
  • user-avatar
    Anmelden

    Stündliche Wetter Stuttgart

    Heute, 18 Februar, Montag

    Zeit Temperatur Niederschläge Wind Luftdruck Luftfeuchtigkeit
    00:00 +7°C° 0 mm 1 m/S 741 mmHg 62%
    01:00 +7°C° 0 mm 1 m/S 741 mmHg 61%
    02:00 +7°C° 0 mm 1 m/S 741 mmHg 61%
    03:00 +6°C° 0 mm 1 m/S 740 mmHg 61%
    04:00 +6°C° 0 mm 1 m/S 740 mmHg 62%
    05:00 +6°C° 0 mm 1 m/S 740 mmHg 62%
    06:00 +6°C° 0 mm 1 m/S 740 mmHg 63%
    07:00 +6°C° 0 mm 1 m/S 740 mmHg 64%
    08:00 +7°C° 0 mm 1 m/S 740 mmHg 62%
    09:00 +8°C° 0 mm 1 m/S 740 mmHg 60%
    10:00 +10°C° 0 mm 1 m/S 740 mmHg 58%
    11:00 +10°C° 0 mm 0 m/S 740 mmHg 53%
    12:00 +12°C° 0 mm 0 m/S 739 mmHg 49%
    13:00 +14°C° 0 mm 0 m/S 739 mmHg 45%
    14:00 +14°C° 0 mm 0 m/S 738 mmHg 46%
    15:00 +14°C° 0 mm 0 m/S 738 mmHg 48%
    16:00 +14°C° 0 mm 1 m/S 738 mmHg 50%
    17:00 +13°C° 0 mm 1 m/S 738 mmHg 55%
    18:00 +11°C° 0 mm 1 m/S 738 mmHg 60%
    19:00 +9°C° 0 mm 1 m/S 738 mmHg 65%
    20:00 +9°C° 0 mm 1 m/S 738 mmHg 68%
    21:00 +8°C° 0 mm 1 m/S 738 mmHg 71%
    22:00 +7°C° 0 mm 2 m/S 738 mmHg 74%
    23:00 +6°C° 0 mm 2 m/S 738 mmHg 74%

    Morgen, 19 Februar, Dienstag

    Zeit Temperatur Niederschläge Wind Luftdruck Luftfeuchtigkeit
    00:00 +6°C° 0 mm 2 m/S 738 mmHg 73%
    01:00 +6°C° 0 mm 2 m/S 738 mmHg 73%
    02:00 +5°C° 0 mm 2 m/S 738 mmHg 73%
    03:00 +5°C° 0 mm 2 m/S 738 mmHg 74%
    04:00 +5°C° 0 mm 2 m/S 738 mmHg 74%
    05:00 +5°C° 0 mm 2 m/S 738 mmHg 74%
    06:00 +4°C° 0 mm 2 m/S 738 mmHg 75%
    07:00 +4°C° 0 mm 2 m/S 738 mmHg 76%
    08:00 +6°C° 0 mm 2 m/S 738 mmHg 73%
    09:00 +7°C° 0 mm 2 m/S 738 mmHg 70%
    10:00 +8°C° 0 mm 3 m/S 738 mmHg 66%
    11:00 +9°C° 0.1 mm 3 m/S 738 mmHg 69%
    12:00 +8°C° 0.1 mm 4 m/S 738 mmHg 72%
    13:00 +8°C° 0.1 mm 4 m/S 739 mmHg 74%
    14:00 +8°C° 0.1 mm 4 m/S 739 mmHg 74%
    15:00 +9°C° 0.1 mm 3 m/S 739 mmHg 74%
    16:00 +8°C° 0.1 mm 3 m/S 739 mmHg 74%
    17:00 +7°C° 0 mm 2 m/S 739 mmHg 78%
    18:00 +6°C° 0 mm 2 m/S 739 mmHg 83%
    19:00 +6°C° 0 mm 1 m/S 740 mmHg 87%
    20:00 +6°C° 0 mm 1 m/S 740 mmHg 89%
    21:00 +5°C° 0 mm 1 m/S 740 mmHg 90%
    22:00 +5°C° 0 mm 1 m/S 741 mmHg 91%
    23:00 +5°C° 0 mm 1 m/S 741 mmHg 91%

    übermorgen, 20 Februar, Mittwoch

    Zeit Temperatur Niederschläge Wind Luftdruck Luftfeuchtigkeit
    00:00 +4°C° 0 mm 1 m/S 741 mmHg 91%
    01:00 +4°C° 0 mm 1 m/S 741 mmHg 91%
    02:00 +4°C° 0 mm 1 m/S 741 mmHg 91%
    03:00 +4°C° 0 mm 1 m/S 741 mmHg 91%
    04:00 +3°C° 0 mm 1 m/S 741 mmHg 90%
    05:00 +3°C° 0 mm 1 m/S 741 mmHg 90%
    06:00 +3°C° 0 mm 1 m/S 741 mmHg 89%
    07:00 +3°C° 0 mm 1 m/S 741 mmHg 88%
    08:00 +5°C° 0 mm 1 m/S 741 mmHg 84%
    09:00 +6°C° 0 mm 1 m/S 741 mmHg 79%
    10:00 +7°C° 0 mm 1 m/S 741 mmHg 74%
    11:00 +9°C° 0 mm 1 m/S 741 mmHg 67%
    12:00 +10°C° 0 mm 1 m/S 741 mmHg 61%
    13:00 +11°C° 0 mm 1 m/S 741 mmHg 54%
    14:00 +11°C° 0 mm 1 m/S 741 mmHg 54%
    15:00 +11°C° 0 mm 1 m/S 741 mmHg 53%
    16:00 +11°C° 0 mm 1 m/S 741 mmHg 53%
    17:00 +10°C° 0 mm 1 m/S 741 mmHg 59%
    18:00 +7°C° 0 mm 0 m/S 742 mmHg 65%
    19:00 +6°C° 0 mm 0 m/S 742 mmHg 71%
    20:00 +6°C° 0 mm 0 m/S 742 mmHg 72%
    21:00 +6°C° 0 mm 1 m/S 743 mmHg 74%
    22:00 +6°C° 0 mm 1 m/S 743 mmHg 76%
    23:00 +6°C° 0 mm 1 m/S 743 mmHg 77%

    21 Februar, Donnerstag

    Zeit Temperatur Niederschläge Wind Luftdruck Luftfeuchtigkeit
    00:00 +6°C° 0 mm 1 m/S 743 mmHg 78%
    01:00 +5°C° 0 mm 1 m/S 743 mmHg 79%
    02:00 +5°C° 0 mm 1 m/S 743 mmHg 79%
    03:00 +5°C° 0 mm 1 m/S 743 mmHg 79%
    04:00 +5°C° 0 mm 1 m/S 743 mmHg 79%
    05:00 +5°C° 0 mm 1 m/S 744 mmHg 79%
    06:00 +5°C° 0 mm 1 m/S 744 mmHg 80%
    07:00 +5°C° 0 mm 1 m/S 744 mmHg 81%
    08:00 +6°C° 0 mm 1 m/S 744 mmHg 76%
    09:00 +7°C° 0 mm 1 m/S 745 mmHg 72%
    10:00 +9°C° 0 mm 1 m/S 745 mmHg 67%
    11:00 +10°C° 0 mm 1 m/S 745 mmHg 62%
    12:00 +11°C° 0 mm 1 m/S 745 mmHg 57%
    13:00 +13°C° 0 mm 2 m/S 745 mmHg 52%
    14:00 +13°C° 0 mm 2 m/S 745 mmHg 54%
    15:00 +13°C° 0 mm 2 m/S 745 mmHg 55%
    16:00 +13°C° 0 mm 2 m/S 745 mmHg 56%
    17:00 +12°C° 0 mm 2 m/S 745 mmHg 62%
    18:00 +10°C° 0 mm 1 m/S 745 mmHg 67%
    19:00 +9°C° 0 mm 1 m/S 745 mmHg 73%
    20:00 +9°C° 0.1 mm 1 m/S 746 mmHg 75%
    21:00 +9°C° 0.1 mm 1 m/S 746 mmHg 77%
    22:00 +9°C° 0.1 mm 1 m/S 747 mmHg 79%
    23:00 +9°C° 0.2 mm 1 m/S 747 mmHg 81%

    22 Februar, Freitag

    Zeit Temperatur Niederschläge Wind Luftdruck Luftfeuchtigkeit
    00:00 +9°C° 0.2 mm 1 m/S 747 mmHg 83%
    01:00 +8°C° 0.2 mm 1 m/S 747 mmHg 86%
    02:00 +8°C° 0.1 mm 1 m/S 748 mmHg 88%
    03:00 +8°C° 0.1 mm 1 m/S 748 mmHg 90%
    04:00 +7°C° 0.1 mm 0 m/S 748 mmHg 92%
    05:00 +7°C° 0 mm 0 m/S 748 mmHg 93%
    06:00 +7°C° 0 mm 0 m/S 749 mmHg 93%
    07:00 +7°C° 0 mm 0 m/S 749 mmHg 94%
    08:00 +8°C° 0 mm 0 m/S 749 mmHg 91%
    09:00 +8°C° 0 mm 0 m/S 749 mmHg 88%
    10:00 +9°C° 0 mm 0 m/S 750 mmHg 85%
    11:00 +11°C° 0 mm 1 m/S 750 mmHg 78%
    12:00 +12°C° 0 mm 1 m/S 750 mmHg 71%
    13:00 +13°C° 0 mm 2 m/S 750 mmHg 63%
    14:00 +13°C° 0 mm 2 m/S 749 mmHg 64%
    15:00 +13°C° 0 mm 2 m/S 749 mmHg 64%
    16:00 +12°C° 0 mm 3 m/S 749 mmHg 64%
    17:00 +12°C° 0 mm 2 m/S 749 mmHg 70%
    18:00 +9°C° 0 mm 2 m/S 750 mmHg 76%
    19:00 +8°C° 0 mm 2 m/S 750 mmHg 81%
    20:00 +7°C° 0 mm 2 m/S 750 mmHg 83%
    21:00 +8°C° 0 mm 1 m/S 750 mmHg 85%
    22:00 +7°C° 0 mm 1 m/S 751 mmHg 87%
    23:00 +7°C° 0 mm 1 m/S 751 mmHg 88%

    23 Februar, Samstag

    Zeit Temperatur Niederschläge Wind Luftdruck Luftfeuchtigkeit
    00:00 +6°C° 0 mm 1 m/S 751 mmHg 89%
    01:00 +6°C° 0 mm 1 m/S 751 mmHg 90%
    02:00 +5°C° 0 mm 1 m/S 751 mmHg 90%
    03:00 +5°C° 0 mm 1 m/S 751 mmHg 90%
    04:00 +5°C° 0 mm 1 m/S 751 mmHg 91%
    05:00 +5°C° 0 mm 1 m/S 751 mmHg 91%
    06:00 +4°C° 0 mm 1 m/S 751 mmHg 91%
    07:00 +4°C° 0 mm 1 m/S 751 mmHg 92%
    08:00 +5°C° 0 mm 1 m/S 751 mmHg 87%
    09:00 +7°C° 0 mm 1 m/S 751 mmHg 82%
    10:00 +7°C° 0 mm 2 m/S 752 mmHg 78%
    11:00 +9°C° 0 mm 2 m/S 751 mmHg 71%
    12:00 +10°C° 0 mm 2 m/S 751 mmHg 64%
    13:00 +13°C° 0 mm 2 m/S 751 mmHg 58%
    14:00 +13°C° 0 mm 2 m/S 751 mmHg 58%
    15:00 +13°C° 0 mm 2 m/S 751 mmHg 57%
    16:00 +14°C° 0 mm 2 m/S 750 mmHg 57%
    17:00 +12°C° 0 mm 2 m/S 751 mmHg 64%
    18:00 +9°C° 0 mm 2 m/S 751 mmHg 70%
    19:00 +9°C° 0 mm 1 m/S 751 mmHg 77%
    20:00 +8°C° 0 mm 1 m/S 751 mmHg 78%
    21:00 +8°C° 0 mm 1 m/S 751 mmHg 80%
    22:00 +7°C° 0 mm 1 m/S 751 mmHg 82%
    23:00 +7°C° 0 mm 1 m/S 751 mmHg 83%
    Mehr zeigen